Weather History for KDKB - January, 2014

Change the Weather History Date:

Saturday, January 25, 2014

  Actual Average (KARR) Record (KARR)
Temperature  
Mean Temperature 18 °F 21 °F  
Max Temperature 31 °F 29 °F 48 °F (2002)
Min Temperature 4 °F 12 °F -20 °F (2008)
Degree Days  
Heating Degree Days 48 44  
Month to date heating degree days 1102  
Since 1 July heating degree days 3751  
Cooling Degree Days 0 0  
Month to date cooling degree days 0  
Year to date cooling degree days 0  
Moisture  
Dew Point 5 °F    
Average Humidity 63    
Maximum Humidity 94    
Minimum Humidity 43    
Precipitation  
Precipitation 0.00 in 0.06 in 0.01 in (2015)
Month to date precipitation 1.11  
Year to date precipitation 1.11  
Sea Level Pressure  
Sea Level Pressure 29.64 in    
Wind  
Wind Speed 21 mph (WNW)    
Max Wind Speed 31 mph    
Max Gust Speed 44 mph    
Visibility 9 miles    
Events      
T = Trace of Precipitation, MM = Missing Value Source: NWS Daily Summary

Daily Weather History Graph

Daily Weather History Graph

Search for Another Location

Airport or City:

Trip Planner

Search our weather history database for the weather conditions in past years. The results will help you decide how hot, cold, wet, or windy it might be!

Date:

Astronomy

Jan. 25, 2014 Rise Set
Actual Time 7:13 AM CST 5:01 PM CST
Civil Twilight 6:43 AM CST 5:31 PM CST
Nautical Twilight 6:09 AM CST 6:04 PM CST
Astronomical Twilight 5:36 AM CST 6:37 PM CST
Moon 1:45 AM CST (1/25) 12:01 PM CST (1/25)
Length of Visible Light 10h 47m
Length of Day
9h 47m
Waning Crescent, 34% of the Moon is Illuminated
Jan 25
Waning Crescent
Jan 30
New
Feb 6
First Quarter
Feb 14
Full
Feb 22
Last Quarter

Hourly Weather History & Observations

Time (CST) Temp. Windchill Dew Point Humidity Pressure Visibility Wind Dir Wind Speed Gust Speed Precip Events Conditions
12:15 AM 27.5 °F 12.9 °F 25.2 °F 91% 29.44 in 3.0 mi WSW 24.2 mph 31.1 mph N/A   Overcast
12:35 AM 27.5 °F 12.9 °F 25.3 °F 92% 29.43 in 3.0 mi WSW 24.2 mph 28.8 mph N/A   Overcast
12:55 AM 27.5 °F 13.5 °F 25.5 °F 92% 29.42 in 4.0 mi WSW 21.9 mph 28.8 mph N/A   Overcast
1:15 AM 27.5 °F 13.5 °F 25.7 °F 93% 29.42 in 4.0 mi WSW 21.9 mph 28.8 mph N/A   Overcast
1:35 AM 28.2 °F 15.2 °F 26.4 °F 93% 29.42 in 4.0 mi WSW 19.6 mph 24.2 mph N/A   Overcast
1:55 AM 28.4 °F 16.6 °F 27.0 °F 94% 29.41 in 4.0 mi West 16.1 mph 25.3 mph N/A   Overcast
2:15 AM 29.1 °F 17.1 °F 27.5 °F 94% 29.41 in 3.0 mi West 17.3 mph 24.2 mph N/A   Overcast
2:35 AM 29.8 °F 18.0 °F 28.2 °F 94% 29.41 in 7.0 mi West 17.3 mph 23.0 mph N/A   Overcast
2:55 AM 31.1 °F 19.3 °F 29.1 °F 92% 29.41 in 7.0 mi West 18.4 mph 25.3 mph N/A   Overcast
3:15 AM 31.6 °F 20.0 °F 28.4 °F 88% 29.41 in 10.0 mi West 18.4 mph 24.2 mph N/A   Overcast
3:35 AM 31.8 °F 19.9 °F 27.9 °F 85% 29.42 in 10.0 mi WNW 19.6 mph 28.8 mph N/A   Overcast
3:55 AM 30.7 °F 19.6 °F 26.1 °F 83% 29.42 in 10.0 mi WNW 16.1 mph 24.2 mph N/A   Overcast
4:15 AM 29.7 °F 19.6 °F 24.3 °F 80% 29.42 in 10.0 mi NW 12.7 mph - N/A   Overcast
4:35 AM 29.3 °F 17.0 °F 22.8 °F 77% 29.43 in 10.0 mi WNW 18.4 mph 26.5 mph N/A   Scattered Clouds
4:55 AM 28.0 °F 15.3 °F 19.2 °F 70% 29.44 in 10.0 mi WNW 18.4 mph 27.6 mph N/A   Scattered Clouds
5:15 AM 27.5 °F 14.2 °F 18.1 °F 68% 29.45 in 10.0 mi WNW 19.6 mph 26.5 mph N/A   Scattered Clouds
5:35 AM 26.8 °F 13.7 °F 18.0 °F 69% 29.45 in 10.0 mi WNW 18.4 mph 29.9 mph N/A   Clear
5:55 AM 26.2 °F 11.9 °F 15.8 °F 65% 29.46 in 10.0 mi WNW 21.9 mph 32.2 mph N/A   Clear
6:15 AM 25.2 °F 10.4 °F 14.9 °F 65% 29.47 in 10.0 mi WNW 21.9 mph 28.8 mph N/A   Clear
6:35 AM 24.8 °F 10.7 °F 16.0 °F 69% 29.47 in 10.0 mi WNW 19.6 mph 26.5 mph N/A   Scattered Clouds
6:55 AM 24.6 °F 9.4 °F 13.8 °F 64% 29.48 in 10.0 mi WNW 23.0 mph 29.9 mph N/A   Scattered Clouds
7:15 AM 23.4 °F 6.5 °F 11.3 °F 60% 29.49 in 10.0 mi WNW 27.6 mph 35.7 mph N/A   Scattered Clouds
7:35 AM 21.6 °F 5.3 °F 8.8 °F 58% 29.50 in 10.0 mi WNW 23.0 mph 32.2 mph N/A   Mostly Cloudy
7:55 AM 19.8 °F 1.3 °F 4.6 °F 52% 29.52 in 10.0 mi WNW 28.8 mph 39.1 mph N/A   Overcast
8:15 AM 18.5 °F -0.4 °F 3.7 °F 53% 29.54 in 10.0 mi WNW 28.8 mph 38.0 mph N/A   Overcast
8:35 AM 17.8 °F -0.1 °F 3.0 °F 53% 29.55 in 10.0 mi WNW 24.2 mph 34.5 mph N/A   Overcast
8:55 AM 17.2 °F -1.5 °F 2.7 °F 53% 29.56 in 10.0 mi WNW 26.5 mph 38.0 mph N/A   Overcast
9:15 AM 16.7 °F -3.4 °F -1.7 °F 44% 29.58 in 10.0 mi NW 31.1 mph 43.7 mph N/A   Overcast
9:35 AM 15.1 °F -3.7 °F -3.6 °F 43% 29.60 in 10.0 mi NW 24.2 mph 36.8 mph N/A   Mostly Cloudy
9:55 AM 15.3 °F -3.8 °F -3.3 °F 44% 29.62 in 10.0 mi NW 25.3 mph 35.7 mph N/A   Scattered Clouds
10:15 AM 14.9 °F -4.3 °F -2.2 °F 47% 29.63 in 10.0 mi NW 25.3 mph 29.9 mph N/A   Clear
10:35 AM 14.7 °F -1.6 °F -2.9 °F 46% 29.65 in 10.0 mi NNW 17.3 mph 26.5 mph N/A   Clear
10:55 AM 14.4 °F -5.0 °F -4.0 °F 44% 29.67 in 10.0 mi NW 25.3 mph 34.5 mph N/A   Clear
11:15 AM 14.2 °F -5.2 °F -2.4 °F 48% 29.67 in 10.0 mi WNW 25.3 mph 33.4 mph N/A   Clear
11:35 AM 13.5 °F -4.6 °F -5.3 °F 43% 29.68 in 10.0 mi NW 20.7 mph 31.1 mph N/A   Clear
11:55 AM 12.9 °F -6.1 °F -4.7 °F 45% 29.68 in 10.0 mi NW 23.0 mph 33.4 mph N/A   Clear
12:15 PM 12.9 °F -6.5 °F -4.0 °F 47% 29.69 in 10.0 mi NW 24.2 mph 39.1 mph N/A   Clear
12:35 PM 12.2 °F -8.2 °F -3.8 °F 49% 29.71 in 10.0 mi WNW 26.5 mph 35.7 mph N/A   Clear
12:55 PM 12.0 °F -7.3 °F -4.2 °F 48% 29.72 in 10.0 mi WNW 23.0 mph 35.7 mph N/A   Clear
1:15 PM 12.0 °F -9.2 °F -4.9 °F 47% 29.72 in 10.0 mi WNW 28.8 mph 33.4 mph N/A   Clear
1:35 PM 11.8 °F -8.0 °F -3.8 °F 50% 29.72 in 10.0 mi WNW 24.2 mph 34.5 mph N/A   Clear
1:55 PM 11.5 °F -8.1 °F -4.4 °F 49% 29.72 in 10.0 mi WNW 23.0 mph 34.5 mph N/A   Clear
2:15 PM 11.3 °F -9.4 °F -4.7 °F 49% 29.73 in 10.0 mi WNW 26.5 mph 32.2 mph N/A   Clear
2:35 PM 11.5 °F -7.2 °F -3.6 °F 51% 29.74 in 10.0 mi WNW 20.7 mph 32.2 mph N/A   Clear
2:55 PM 11.3 °F -9.8 °F -4.5 °F 49% 29.75 in 10.0 mi WNW 27.6 mph 32.2 mph N/A   Clear
3:15 PM 11.3 °F -7.0 °F -3.5 °F 52% 29.76 in 10.0 mi WNW 19.6 mph 28.8 mph N/A   Clear
3:35 PM 10.8 °F -9.0 °F -4.0 °F 52% 29.77 in 10.0 mi WNW 23.0 mph 31.1 mph N/A   Clear
3:55 PM 10.4 °F -8.2 °F -4.2 °F 52% 29.78 in 10.0 mi WNW 19.6 mph 27.6 mph N/A   Clear
4:15 PM 10.0 °F -9.5 °F -4.5 °F 52% 29.79 in 10.0 mi WNW 21.9 mph 27.6 mph N/A   Clear
4:35 PM 9.5 °F -9.3 °F -4.4 °F 54% 29.80 in 10.0 mi WNW 19.6 mph 25.3 mph N/A   Clear
4:55 PM 8.8 °F -9.3 °F -3.6 °F 57% 29.81 in 10.0 mi West 17.3 mph 23.0 mph N/A   Clear
5:15 PM 8.2 °F -10.5 °F -4.4 °F 57% 29.81 in 10.0 mi WNW 18.4 mph 24.2 mph N/A   Clear
5:35 PM 7.5 °F -9.1 °F -4.5 °F 58% 29.82 in 10.0 mi West 13.8 mph 20.7 mph N/A   Clear
5:55 PM 6.8 °F -10.0 °F -4.2 °F 61% 29.83 in 10.0 mi West 13.8 mph - N/A   Clear
6:15 PM 7.2 °F -10.2 °F -4.0 °F 60% 29.84 in 10.0 mi West 15.0 mph - N/A   Clear
6:35 PM 6.4 °F -12.3 °F -4.0 °F 62% 29.84 in 10.0 mi West 17.3 mph 23.0 mph N/A   Clear
6:55 PM 5.7 °F -13.2 °F -4.2 °F 64% 29.84 in 10.0 mi West 17.3 mph - N/A   Clear
7:15 PM 5.4 °F -14.2 °F -4.5 °F 64% 29.86 in 10.0 mi West 18.4 mph 24.2 mph N/A   Clear
7:35 PM 4.8 °F -13.2 °F -4.9 °F 64% 29.85 in 10.0 mi West 15.0 mph 20.7 mph N/A   Clear
7:55 PM 4.5 °F -13.7 °F -5.3 °F 64% 29.85 in 10.0 mi West 15.0 mph - N/A   Clear
8:15 PM 4.5 °F -14.3 °F -5.3 °F 64% 29.85 in 10.0 mi West 16.1 mph - N/A   Clear
9:15 PM 4.5 °F -11.5 °F -5.1 °F 65% 29.84 in 10.0 mi West 11.5 mph - N/A   Clear
9:35 PM 4.6 °F -8.5 °F -5.1 °F 64% 29.83 in 10.0 mi West 8.1 mph - N/A   Clear
9:55 PM 5.0 °F -10.8 °F -5.1 °F 63% 29.82 in 10.0 mi WNW 11.5 mph - N/A   Clear
10:15 PM 5.0 °F -9.1 °F -5.1 °F 63% 29.82 in 10.0 mi West 9.2 mph - N/A   Clear
10:35 PM 5.0 °F -5.6 °F -5.3 °F 63% 29.81 in 10.0 mi WNW 5.8 mph - N/A   Clear
10:55 PM 5.5 °F -7.4 °F -5.4 °F 61% 29.82 in 10.0 mi West 8.1 mph - N/A   Scattered Clouds
11:15 PM 5.9 °F -7.0 °F -5.8 °F 59% 29.80 in 10.0 mi WNW 8.1 mph - N/A   Mostly Cloudy
11:35 PM 5.9 °F -8.0 °F -5.1 °F 61% 29.79 in 10.0 mi West 9.2 mph - N/A   Overcast
11:55 PM 6.1 °F -2.8 °F -5.4 °F 59% 29.77 in 10.0 mi West 4.6 mph - N/A   Overcast